Regional Weather Roundup
Issued by NWS

Home | Current Version | Previous Version | Text Only | Print | Product List | Glossary Off
Versions: 1 2 3 4 5 6 7 8 9 10 11 12 13 14 15 16 17 18 19 20 21 22 23 24 25 26 27

000
ASUS45 KBOI 162110
RWRID
WEATHER ROUNDUP FOR IDAHO
NATIONAL WEATHER SERVICE BOISE ID
300 PM MDT WED APR 16 2014

NOTE: "FAIR" INDICATES FEW OR NO CLOUDS BELOW 12000 FEET
WITH NO SIGNIFICANT WEATHER AND/OR OBSTRUCTIONS TO VISIBILITY

IDZ012-014-162200-
SOUTHWEST IDAHO


CITY           SKY/WX    TMP DP  RH WIND       PRES   REMARKS
BOISE          SUNNY     58  18  21 SW6       30.02F
CALDWELL       SUNNY     61  23  23 N9        30.05F
MOUNTAIN HOME  SUNNY     60  10  13 NW7       30.01F
$$

IDZ016-017-162200-
SOUTHCENTRAL IDAHO


CITY           SKY/WX    TMP DP  RH WIND       PRES   REMARKS
BURLEY         SUNNY     55  14  19 W8        30.00F
JEROME         SUNNY     56  12  17 W13G20    30.01F
TWIN FALLS     SUNNY     57  12  17 W13       30.02F
$$

IDZ019>023-162200-
SOUTHEAST IDAHO


CITY           SKY/WX    TMP DP  RH WIND       PRES   REMARKS
IDAHO FALLS    MOSUNNY   51  15  23 S8        30.00F
POCATELLO      MOSUNNY   54  13  19 W14       30.01F
REXBURG        MOSUNNY   49  12  22 CALM      29.99F
$$

IDZ006-010-011-018-031-032-162200-
CENTRAL IDAHO MOUNTAINS


CITY           SKY/WX    TMP DP  RH WIND       PRES   REMARKS
MCCALL         CLOUDY    47  14  26 MISG      30.00F
HAILEY         MOSUNNY   50  16  25 SE6       30.00F
STANLEY          N/A     43  10  26 VRB7      30.01S
SALMON         MOSUNNY   52  16  24 N8        29.96F
CHALLIS          N/A     52   8  17 MISG      29.95F
$$

IDZ002-004-006-007-026-162200-
NORTHERN IDAHO


CITY           SKY/WX    TMP DP  RH WIND       PRES   REMARKS
LEWISTON       PTSUNNY   59  30  33 VRB6      30.04F
LOWELL           N/A     61  31  32 CALM      30.04F
COEUR D`ALENE  CLOUDY    45  37  76 S3        30.04F
MULLAN PASS    LGT SNOW  31  29  92 VRB7      29.97F FOG     WCI  24
$$



USA.gov is the U.S. government's official web portal to all federal, state and local government web resources and services.